History for Miami, FL

Saturday, November 24, 2012 — View Current Conditions

Jump to Data:

Date:
Airport Code:
Recently Viewed Airport Codes: KMIA
Daily Summary
  Actual Average Record
Temperature
Mean Temperature 67°F 74°F  
Max Temperature 75°F 81°F 88°F (2014)
Min Temperature 58°F 67°F 42°F (1970)
Degree Days
Heating Degree Days 0 0  
Month to date heating degree days 1 0  
Since 1 July heating degree days 1 0  
Cooling Degree Days 2 9  
Month to date cooling degree days 161 250  
Year to date cooling degree days 4400 4322  
Growing Degree Days 16 (Base 50)    
Moisture
Dew Point 50°F    
Average Humidity 60    
Maximum Humidity 78    
Minimum Humidity 41    
Precipitation
Precipitation 0.00 in 0.08 in 4.01 in (1977)
Month to date precipitation 0.24 2.75  
Year to date precipitation 86.17 59.34  
Snow
Snow 0.00 in in in ()
Month to date snowfall 0.0  
Since 1 July snowfall 0.0  
Since 1 September snowfall 0.0  
Snow Depth 0.00 in    
Sea Level Pressure
Sea Level Pressure 30.08 in    
Wind
Wind Speed 5 mph (NW)    
Max Wind Speed 15 mph    
Max Gust Speed 23 mph    
Visibility 10 miles    
Events      
T = Trace of Precipitation, MM = Missing Value Source: NWS Daily Summary

Show full METARS

(help) - Comma Delimited File

Hourly Observations

Time(EST) Temperature Dew Point Humidity Sea Level Pressure Visibility Wind Direction Wind Speed Gust Speed Precipitation Events Conditions
12:53 AM 63.0°F 52.0°F 67% 30.09 in 10.0 miles North 3.5 mph - N/A   Partly Cloudy
1:53 AM 59.0°F 50.0°F 72% 30.08 in 10.0 miles Calm Calm - N/A   Clear
2:53 AM 60.1°F 48.9°F 67% 30.07 in 10.0 miles NW 4.6 mph - N/A   Clear
3:53 AM 57.9°F 48.9°F 72% 30.07 in 10.0 miles NW 4.6 mph - N/A   Clear
4:53 AM 57.9°F 46.0°F 65% 30.07 in 10.0 miles Calm Calm - N/A   Clear
5:53 AM 57.9°F 46.0°F 65% 30.09 in 10.0 miles NW 4.6 mph - N/A   Clear
6:53 AM 57.9°F 48.0°F 70% 30.11 in 10.0 miles NNW 3.5 mph - N/A   Clear
7:53 AM 60.1°F 46.9°F 62% 30.12 in 10.0 miles NW 5.8 mph - N/A   Clear
8:53 AM 64.0°F 50.0°F 60% 30.14 in 10.0 miles NW 5.8 mph - N/A   Clear
9:53 AM 68.0°F 52.0°F 56% 30.14 in 10.0 miles Variable 6.9 mph - N/A   Clear
10:53 AM 71.1°F 52.0°F 51% 30.12 in 10.0 miles NNW 10.4 mph - N/A   Clear
11:53 AM 72.0°F 52.0°F 49% 30.10 in 10.0 miles NW 9.2 mph 18.4 mph N/A   Clear
12:53 PM 73.0°F 51.1°F 46% 30.06 in 10.0 miles WNW 10.4 mph 18.4 mph N/A   Partly Cloudy
1:53 PM 75.0°F 53.1°F 46% 30.04 in 10.0 miles WNW 6.9 mph - N/A   Partly Cloudy
2:53 PM 75.0°F 51.1°F 43% 30.03 in 10.0 miles Variable 4.6 mph - N/A   Partly Cloudy
3:53 PM 75.0°F 51.1°F 43% 30.02 in 10.0 miles WNW 8.1 mph - N/A   Partly Cloudy
4:53 PM 73.0°F 48.0°F 41% 30.03 in 10.0 miles NNW 6.9 mph - N/A   Partly Cloudy
5:53 PM 71.1°F 46.9°F 42% 30.04 in 10.0 miles Calm Calm - N/A   Scattered Clouds
6:53 PM 68.0°F 46.9°F 47% 30.05 in 10.0 miles Calm Calm - N/A   Clear
7:53 PM 64.9°F 48.0°F 54% 30.06 in 10.0 miles Calm Calm - N/A   Clear
8:53 PM 66.0°F 50.0°F 56% 30.07 in 10.0 miles Calm Calm - N/A   Clear
9:53 PM 64.9°F 55.9°F 73% 30.08 in 10.0 miles WSW 5.8 mph - N/A   Scattered Clouds
10:53 PM 64.0°F 57.9°F 80% 30.09 in 10.0 miles Calm Calm - N/A   Scattered Clouds
11:53 PM 64.0°F 57.9°F 80% 30.09 in 10.0 miles NW 5.8 mph - N/A   Partly Cloudy